EW9240 Weather Reports


Display with metric or nautical units.
time (UTC)temp
F
wind
direction
speed
MPH
gust
MPH
rain 1hr
in
rain 24hr
in
rain mn
in
humidity
%
barometer
mb
20260902094538 60 207 0.0 1.0 0.00 0.00 0.00 77 1008.7
20260902093022 61 219 0.0 2.0 0.00 0.00 0.00 77 1008.9
20260902091505 61 212 0.0 2.0 0.00 0.00 0.00 78 1009.0
20260902090057 61 222 0.0 2.0 0.00 0.00 0.00 77 1009.0
20260902084537 61 205 0.0 2.0 0.00 0.00 0.00 78 1009.1
20260902083022 61 207 0.0 4.0 0.00 0.00 0.00 78 1009.1
20260902081510 61 214 0.0 0.0 0.00 0.00 0.00 78 1009.0
20260902080054 62 165 0.0 0.0 0.00 0.00 0.00 78 1009.0
20260902074540 62 120 0.0 1.0 0.00 0.00 0.00 77 1009.1
20260902073012 62 125 0.0 0.0 0.00 0.00 0.00 77 1009.2
20260902071558 62 125 0.0 1.0 0.00 0.00 0.00 76 1009.3
20260902070043 62 133 0.0 2.0 0.00 0.00 0.00 76 1009.4
20260902064520 62 122 0.0 2.0 0.00 0.00 0.00 76 1009.7
20260902063006 62 144 0.0 3.0 0.00 0.00 0.00 75 1009.7
20260902061542 62 131 0.0 3.0 0.00 0.00 0.00 75 1009.6
20260902060016 63 216 0.0 3.0 0.00 0.00 0.00 75 1009.7
20260902054501 63 218 0.0 3.0 0.00 0.00 0.00 74 1009.8
20260902053038 63 139 0.0 3.0 0.00 0.00 0.00 74 1010.0
20260902051524 63 234 1.0 4.0 0.00 0.00 0.00 74 1009.9
20260902050019 63 213 0.0 3.0 0.00 0.00 0.00 74 1009.9
20260902044554 63 219 0.0 2.0 0.00 0.00 0.00 74 1009.7
20260902043045 64 206 1.0 3.0 0.00 0.00 0.00 74 1009.8
20260902041515 64 213 1.0 5.0 0.00 0.00 0.00 73 1009.6
20260902040002 64 220 2.0 6.0 0.00 0.00 0.00 73 1009.6
20260902034601 64 207 0.0 5.0 0.00 0.00 0.00 72 1009.4
20260902033035 64 220 0.0 5.0 0.00 0.00 0.00 72 1009.2
20260902031523 65 179 1.0 5.0 0.00 0.00 0.00 71 1009.2
20260902030004 65 164 1.0 5.0 0.00 0.00 0.00 70 1009.3
20260902024600 66 217 1.0 7.0 0.00 0.00 0.00 69 1009.2
20260902023034 66 212 1.0 5.0 0.00 0.00 0.00 69 1009.1
20260902021514 66 212 1.0 5.0 0.00 0.00 0.00 68 1009.0
20260902020005 67 212 1.0 5.0 0.00 0.00 0.00 67 1009.0
20260902014546 67 229 0.0 3.0 0.00 0.00 0.00 65 1008.9
20260902013038 67 197 0.0 8.0 0.00 0.00 0.00 65 1008.9
20260902011508 68 203 2.0 4.0 0.00 0.00 0.00 65 1008.9
20260902010056 68 215 0.0 1.0 0.00 0.00 0.00 64 1008.8
20260902004541 69 209 0.0 2.0 0.00 0.00 0.00 65 1008.6
20260902003021 69 221 0.0 2.0 0.00 0.00 0.00 64 1008.5
20260902001525 69 176 0.0 1.0 0.00 0.00 0.00 65 1008.5
20260902000039 69 295 0.0 3.0 0.00 0.00 0.00 64 1008.4
20260901234520 69 268 0.0 3.0 0.00 0.00 0.00 64 1008.6
20260901233007 69 288 1.0 3.0 0.00 0.00 0.00 63 1008.7
20260901231550 70 259 0.0 3.0 0.00 0.00 0.00 63 1008.9
20260901230042 70 271 0.0 3.0 0.00 0.00 0.00 64 1008.8
20260901224507 69 357 0.0 4.0 0.00 0.00 0.00 64 1008.9
20260901223101 69 308 0.0 1.0 0.00 0.00 0.00 65 1008.9
20260901221535 69 347 0.0 3.0 0.00 0.00 0.00 65 1008.9
20260901220017 69 217 0.0 3.0 0.00 0.00 0.00 64 1008.9
20260901214503 69 219 0.0 2.0 0.00 0.00 0.00 64 1008.9
20260901213040 69 214 0.0 2.0 0.00 0.00 0.00 63 1009.0
20260901211506 69 208 0.0 4.0 0.00 0.00 0.00 64 1009.0
20260901210039 68 214 0.0 2.0 0.00 0.00 0.00 67 1009.1
20260901204534 66 205 0.0 2.0 0.00 0.00 0.00 71 1009.1
20260901203014 65 214 0.0 3.0 0.00 0.00 0.00 73 1009.2
20260901201606 66 205 2.0 6.0 0.00 0.00 0.00 71 1009.3
20260901200042 66 192 0.0 0.0 0.00 0.00 0.00 71 1009.3
20260901194524 66 72 0.0 5.0 0.00 0.00 0.00 72 1009.4
20260901193013 65 219 0.0 3.0 0.00 0.00 0.00 73 1009.7
20260901191615 65 143 0.0 2.0 0.00 0.00 0.00 73 1009.8
20260901190048 65 164 0.0 2.0 0.00 0.00 0.00 76 1009.8
20260901184601 64 224 0.0 3.0 0.00 0.00 0.00 77 1010.0
20260901183021 63 206 0.0 4.0 0.00 0.00 0.00 78 1010.1
20260901181500 63 214 0.0 4.0 0.00 0.00 0.00 78 1010.1
20260901180053 64 214 0.0 4.0 0.00 0.00 0.00 78 1010.2
20260901174551 63 122 0.0 3.0 0.00 0.00 0.00 81 1010.2
20260901173030 61 214 0.0 4.0 0.00 0.00 0.00 83 1010.2
20260901171513 60 217 0.0 5.0 0.00 0.00 0.00 85 1010.1
20260901164549 60 214 1.0 5.0 0.00 0.00 0.00 83 1010.1
20260901163031 60 210 0.0 1.0 0.00 0.00 0.00 83 1010.0
20260901161525 60 162 0.0 1.0 0.00 0.00 0.00 83 1010.1
20260901160006 60 218 0.0 2.0 0.00 0.00 0.00 83 1010.0
20260901154557 60 222 0.0 3.0 0.00 0.00 0.00 82 1009.9
20260901153041 60 212 0.0 4.0 0.00 0.00 0.00 81 1009.9
20260901151527 60 216 0.0 1.0 0.00 0.00 0.00 81 1009.8
20260901150109 60 127 0.0 3.0 0.00 0.00 0.00 81 1009.7
20260901144550 60 116 0.0 1.0 0.00 0.00 0.00 81 1009.6
20260901143014 60 126 0.0 0.0 0.00 0.00 0.00 82 1009.6
20260901141524 60 219 0.0 0.0 0.00 0.00 0.00 82 1009.6
20260901140009 60 124 0.0 1.0 0.00 0.00 0.00 82 1009.5
20260901134557 60 125 0.0 1.0 0.00 0.00 0.00 82 1009.4
20260901133044 59 124 0.0 3.0 0.00 0.00 0.00 82 1009.4
20260901131512 59 118 0.0 2.0 0.00 0.00 0.00 83 1009.4
20260901130057 59 124 0.0 1.0 0.00 0.00 0.00 83 1009.4
20260901124539 59 142 0.0 0.0 0.00 0.00 0.00 83 1009.3
20260901123040 59 141 0.0 0.0 0.00 0.00 0.00 84 1009.2
20260901121512 58 139 0.0 1.0 0.00 0.00 0.00 84 1009.2
20260901120105 58 124 0.0 1.0 0.00 0.00 0.00 84 1009.4
20260901114549 58 129 0.0 1.0 0.00 0.00 0.00 84 1009.3
20260901113035 58 129 0.0 1.0 0.00 0.00 0.00 84 1009.2
20260901111525 58 159 0.0 1.0 0.00 0.00 0.00 83 1009.1
20260901110045 59 138 0.0 3.0 0.00 0.00 0.00 83 1009.0
20260901104530 59 122 0.0 2.0 0.00 0.00 0.00 82 1009.0
20260901103012 59 155 0.0 1.0 0.00 0.00 0.00 82 1009.0
20260901101602 59 213 0.0 1.0 0.00 0.00 0.00 81 1008.9
20260901100052 60 210 0.0 1.0 0.00 0.00 0.00 81 1008.9